Location: Wildlife_Club
(35.6000°N, 81.4330°W)
Time: 00:43:17
(UTC-04:00)

A-11 Canister half - Pass Details

Date: 27 June 2019
Orbit: 1514 x 1686 km, 47.2° (Epoch: 17 August)

Event Time Altitude Azimuth Distance (km) Brightness Sun altitude
Rises 17:45:13 0° 302° (WNW) 4,786 12.4 33.8°
Reaches altitude 10° 17:48:28 10° 297° (WNW) 3,775 12.3 33.2°
Maximum altitude 17:57:29 50° 226° (SW) 1,891 10.4 31.3°
Drops below altitude 10° 18:06:15 10° 154° (SSE) 3,669 10.8 29.6°
Sets 18:09:22 0° 149° (SSE) 4,642 11.2 29.0°
